Location: Barrio de Buenos Aires
(28.4500°N, 16.2667°W)
Time: 01:44:22
(UTC+00:00)

Cosmos 1328 - Pass Details

Date: 24 January 2020
Orbit: 535 x 549 km, 82.5° (Epoch: 19 February)

Event Time Altitude Azimuth Distance (km) Brightness Sun altitude
Rises 19:15:05 0° 183° (S) 2,703 7.6 -8.6°
Reaches altitude 10° 19:17:14 10° 182° (S) 1,813 6.7 -9.0°
Maximum altitude 19:21:13 82° 96° (E) 558 3.7 -9.9°
Drops below altitude 10° 19:25:14 10° 8° (N) 1,823 6.2 -10.7°
Sets 19:27:24 0° 7° (N) 2,719 7.1 -11.2°
